Weather History for Fremont, NE

Change the Weather History Date:

Friday, September 7, 2012

  Actual Average Record
Temperature  
Mean Temperature 68 °F -  
Max Temperature 76 °F 84 °F 98 °F (1971)
Min Temperature 56 °F 59 °F 40 °F (1956)
Cooling Degree Days 3    
Growing Degree Days 18 (Base 50)    
Moisture  
Dew Point 53 °F    
Average Humidity 61    
Maximum Humidity 85    
Minimum Humidity 33    
Precipitation  
Precipitation 0.02 in - - ()
Sea Level Pressure  
Sea Level Pressure 29.99 in    
Wind  
Wind Speed 9 mph (NW)    
Max Wind Speed 16 mph    
Max Gust Speed 23 mph    
Visibility 10 miles    
Events Rain    
Averages and records for this station are not official NWS values.
T = Trace of Precipitation, MM = Missing Value Source: NWS Daily Summary

Daily Weather History Graph

Daily Weather History Graph

Search for Another Location

Airport:

Trip Planner

Search our weather history database for the weather conditions in past years. The results will help you decide how hot, cold, wet, or windy it might be!

Date:

Astronomy

Sep. 07, 2012 Rise Set
Actual Time 6:58 AM CDT 7:48 PM CDT
Civil Twilight 6:30 AM CDT 8:16 PM CDT
Nautical Twilight 5:57 AM CDT 8:49 PM CDT
Astronomical Twilight 5:22 AM CDT 9:23 PM CDT
Moon 11:39 PM CDT (9/7) 1:57 PM CDT (9/7)
Length of Visible Light 13h 45m
Length of Day
12h 49m
Waning Gibbous, 58% of the Moon is Illuminated
Sep 7
Waning Gibbous
Sep 8
Last Quarter
Sep 15
New
Sep 22
First Quarter
Sep 29
Full

Hourly Weather History & Observations

Time (CDT) Temp. Dew Point Humidity Pressure Visibility Wind Dir Wind Speed Gust Speed Precip Events Conditions
12:15 AM 78.1 °F 64.9 °F 64% 29.79 in 10.0 mi South 9.2 mph - N/A   Clear
12:35 AM 77.7 °F 65.3 °F 65% 29.78 in 10.0 mi South 9.2 mph - N/A   Clear
12:55 AM 77.0 °F 65.3 °F 67% 29.78 in 10.0 mi South 4.6 mph - N/A   Clear
1:15 AM 76.1 °F 65.3 °F 69% 29.78 in 10.0 mi South 5.8 mph - N/A   Clear
1:35 AM 75.2 °F 65.3 °F 71% 29.78 in 10.0 mi South 6.9 mph - N/A   Clear
1:55 AM 74.3 °F 64.8 °F 72% 29.77 in 10.0 mi SSW 3.5 mph - N/A   Clear
2:15 AM 72.5 °F 64.0 °F 75% 29.77 in 10.0 mi SW 4.6 mph - N/A   Clear
2:35 AM 72.1 °F 63.5 °F 74% 29.77 in 10.0 mi West 8.1 mph - N/A   Clear
2:55 AM 70.2 °F 62.6 °F 77% 29.78 in 10.0 mi West 9.2 mph - N/A   Clear
3:15 AM 67.5 °F 59.5 °F 76% 29.79 in 10.0 mi WNW 9.2 mph - N/A   Clear
3:35 AM 67.5 °F 57.0 °F 69% 29.80 in 10.0 mi WNW 10.4 mph - N/A   Clear
3:55 AM 68.0 °F 55.8 °F 65% 29.81 in 10.0 mi NW 11.5 mph 19.6 mph N/A   Clear
4:15 AM 67.5 °F 55.6 °F 66% 29.82 in 10.0 mi WNW 11.5 mph 16.1 mph N/A   Clear
4:35 AM 66.4 °F 54.7 °F 66% 29.84 in 10.0 mi WNW 11.5 mph - N/A   Clear
4:55 AM 67.1 °F 53.6 °F 62% 29.86 in 10.0 mi NW 12.7 mph 18.4 mph N/A   Clear
5:15 AM 67.3 °F 52.7 °F 59% 29.87 in 10.0 mi NW 16.1 mph 21.9 mph N/A   Clear
5:35 AM 66.4 °F 52.2 °F 60% 29.89 in 10.0 mi NNW 15.0 mph 23.0 mph N/A   Clear
5:55 AM 65.5 °F 52.2 °F 62% 29.89 in 10.0 mi NNW 11.5 mph 19.6 mph N/A   Clear
6:15 AM 64.6 °F 52.9 °F 66% 29.92 in 10.0 mi NNW 12.7 mph 18.4 mph N/A   Clear
6:35 AM 63.7 °F 53.2 °F 69% 29.94 in 10.0 mi NNW 10.4 mph - N/A   Clear
6:55 AM 63.3 °F 53.6 °F 71% 29.94 in 10.0 mi NNW 8.1 mph 16.1 mph N/A   Clear
7:15 AM 63.1 °F 53.8 °F 71% 29.96 in 10.0 mi NNW 10.4 mph 16.1 mph N/A   Clear
7:35 AM 63.5 °F 54.0 °F 71% 29.96 in 10.0 mi North 8.1 mph - N/A   Clear
7:55 AM 63.5 °F 54.1 °F 72% 29.96 in 10.0 mi North 6.9 mph - N/A   Clear
8:15 AM 63.7 °F 54.5 °F 72% 29.97 in 10.0 mi North 9.2 mph 16.1 mph N/A   Clear
8:35 AM 64.4 °F 54.5 °F 70% 29.99 in 10.0 mi North 10.4 mph 16.1 mph 0.01 in   Scattered Clouds
8:55 AM 64.9 °F 54.0 °F 68% 30.00 in 10.0 mi North 13.8 mph 19.6 mph 0.01 in   Mostly Cloudy
9:15 AM 65.8 °F 53.8 °F 65% 30.01 in 10.0 mi NNW 10.4 mph 16.1 mph N/A   Overcast
9:35 AM 66.6 °F 52.5 °F 61% 30.03 in 10.0 mi North 12.7 mph 18.4 mph N/A   Scattered Clouds
9:55 AM 67.8 °F 52.2 °F 57% 30.04 in 10.0 mi NNW 9.2 mph 16.1 mph N/A   Scattered Clouds
10:15 AM 66.2 °F 52.5 °F 61% 30.06 in 10.0 mi NNW 10.4 mph 19.6 mph N/A   Mostly Cloudy
10:35 AM 63.5 °F 55.0 °F 74% 30.08 in 10.0 mi NNW 11.5 mph - N/A Rain Light Rain
10:55 AM 61.3 °F 56.7 °F 85% 30.06 in 10.0 mi North 8.1 mph - N/A Rain Light Rain
11:15 AM 62.1 °F 57.4 °F 85% 30.06 in 10.0 mi North 6.9 mph - N/A   Scattered Clouds
11:35 AM 62.4 °F 56.3 °F 80% 30.07 in 10.0 mi North 6.9 mph 16.1 mph N/A   Scattered Clouds
11:55 AM 62.6 °F 57.2 °F 82% 30.06 in 10.0 mi North 6.9 mph 17.3 mph N/A Rain Light Rain
12:15 PM 61.5 °F 57.0 °F 85% 30.07 in 10.0 mi NNW 8.1 mph - 0.01 in Rain Light Rain
12:35 PM 61.7 °F 57.2 °F 85% 30.06 in 10.0 mi North 9.2 mph - 0.01 in   Scattered Clouds
12:55 PM 61.3 °F 56.5 °F 84% 30.07 in 10.0 mi NNW 9.2 mph - 0.01 in   Clear
1:15 PM 62.1 °F 56.7 °F 82% 30.05 in 10.0 mi North 6.9 mph - N/A   Clear
1:35 PM 62.6 °F 56.3 °F 80% 30.06 in 10.0 mi North 5.8 mph - N/A   Clear
1:55 PM 64.0 °F 56.7 °F 77% 30.08 in 10.0 mi NW 9.2 mph - N/A   Clear
2:15 PM 66.7 °F 57.6 °F 72% 30.08 in 10.0 mi NW 9.2 mph - N/A   Clear
2:35 PM 68.9 °F 55.2 °F 62% 30.08 in 10.0 mi NNW 9.2 mph - N/A   Scattered Clouds
2:55 PM 70.5 °F 50.5 °F 49% 30.09 in 10.0 mi North 10.4 mph 21.9 mph N/A   Mostly Cloudy
3:15 PM 72.1 °F 49.5 °F 45% 30.08 in 10.0 mi NW 15.0 mph 23.0 mph N/A   Scattered Clouds
3:35 PM 70.9 °F 48.7 °F 45% 30.08 in 10.0 mi NNW 11.5 mph 16.1 mph N/A   Mostly Cloudy
3:55 PM 72.0 °F 48.9 °F 44% 30.07 in 10.0 mi NW 12.7 mph 17.3 mph N/A   Scattered Clouds
4:15 PM 74.1 °F 48.9 °F 41% 30.06 in 10.0 mi North 6.9 mph 17.3 mph N/A   Scattered Clouds
4:35 PM 74.5 °F 47.8 °F 39% 30.06 in 10.0 mi WNW 13.8 mph - N/A   Mostly Cloudy
4:55 PM 72.5 °F 48.6 °F 43% 30.06 in 10.0 mi NNW 10.4 mph - N/A   Mostly Cloudy
5:15 PM 75.2 °F 46.4 °F 36% 30.05 in 10.0 mi NNW 13.8 mph 19.6 mph N/A   Scattered Clouds
5:35 PM 75.2 °F 44.2 °F 33% 30.04 in 10.0 mi North 3.5 mph - N/A   Scattered Clouds
5:55 PM 74.8 °F 44.2 °F 33% 30.04 in 10.0 mi North 9.2 mph 17.3 mph N/A   Mostly Cloudy
6:15 PM 74.5 °F 43.3 °F 33% 30.05 in 10.0 mi NNW 9.2 mph - N/A   Scattered Clouds
6:35 PM 74.1 °F 43.5 °F 33% 30.05 in 10.0 mi NW 15.0 mph 20.7 mph N/A   Clear
6:55 PM 73.0 °F 43.3 °F 34% 30.05 in 10.0 mi NNW 9.2 mph 17.3 mph N/A   Clear
7:15 PM 71.6 °F 43.9 °F 37% 30.05 in 10.0 mi NW 11.5 mph - N/A   Clear
7:35 PM 70.0 °F 43.2 °F 38% 30.06 in 10.0 mi NW 10.4 mph - N/A   Clear
7:55 PM 67.6 °F 44.2 °F 43% 30.06 in 10.0 mi NW 8.1 mph - N/A   Clear
8:15 PM 65.5 °F 44.6 °F 47% 30.07 in 10.0 mi NW 8.1 mph - N/A   Clear
8:35 PM 64.0 °F 44.6 °F 49% 30.08 in 10.0 mi NW 8.1 mph - N/A   Clear
8:55 PM 64.0 °F 44.2 °F 49% 30.09 in 10.0 mi NW 9.2 mph - N/A   Clear
9:15 PM 63.3 °F 43.9 °F 49% 30.10 in 10.0 mi NW 9.2 mph - N/A   Clear
9:35 PM 63.1 °F 43.7 °F 49% 30.11 in 10.0 mi NW 9.2 mph - N/A   Clear
9:55 PM 62.6 °F 44.1 °F 51% 30.11 in 10.0 mi NNW 6.9 mph - N/A   Clear
10:55 PM 58.6 °F 45.0 °F 60% 30.13 in 10.0 mi NNW 4.6 mph - N/A   Clear
11:15 PM 59.5 °F 44.6 °F 58% 30.13 in 10.0 mi Calm Calm - N/A   Clear
11:35 PM 58.6 °F 44.8 °F 60% 30.14 in 10.0 mi NNW 3.5 mph - N/A   Clear
11:55 PM 56.5 °F 44.8 °F 65% 30.14 in 10.0 mi NNW 4.6 mph - N/A   Clear